DW8750 Weather Reports


time (UTC)temp
C
wind
direction
speed
KPH
gust
KPH
rain 1hr
cm
rain 24hr
cm
rain mn
cm
humidity
%
barometer
mb
20260504050107 13 198 1.6 6.4 0.00 0.00 0.00 62 1020.7
20260504044104 12 193 1.6 4.8 0.00 0.00 0.00 63 1020.5
20260504042101 12 209 3.2 6.4 0.00 0.00 0.00 64 1020.4
20260504041113 12 214 1.6 6.4 0.00 0.00 0.00 64 1020.5
20260504040100 12 195 1.6 4.8 0.00 0.00 0.00 64 1020.3
20260504035104 12 195 3.2 6.4 0.00 0.00 0.00 63 1020.3
20260504034058 12 213 1.6 6.4 0.00 0.00 0.00 63 1020.3
20260504032100 12 200 4.8 8.0 0.00 0.00 0.00 63 1020.3
20260504031058 12 186 4.8 8.0 0.00 0.00 0.00 63 1020.4
20260504030100 12 185 4.8 9.7 0.00 0.00 0.00 63 1020.3
20260504025058 12 188 3.2 6.4 0.00 0.00 0.00 65 1020.5
20260504024058 12 181 4.8 9.7 0.00 0.00 0.00 64 1020.6
20260504023100 12 192 4.8 8.0 0.00 0.00 0.00 65 1020.6
20260504022059 12 192 4.8 8.0 0.00 0.00 0.00 65 1020.6
20260504021104 12 186 3.2 6.4 0.00 0.00 0.00 65 1020.6
20260504020059 12 223 3.2 6.4 0.00 0.00 0.00 65 1020.5
20260504015058 12 200 4.8 8.0 0.00 0.00 0.00 66 1020.4
20260504014058 12 213 4.8 9.7 0.00 0.00 0.00 67 1020.3
20260504013056 12 228 1.6 4.8 0.00 0.00 0.00 67 1020.2
20260504012056 12 153 1.6 3.2 0.00 0.00 0.00 66 1020.3
20260504011056 12 153 4.8 8.0 0.00 0.00 0.00 67 1020.3
20260504010053 12 182 3.2 8.0 0.00 0.00 0.00 66 1020.5
20260504005053 13 184 1.6 4.8 0.00 0.00 0.00 67 1020.6
20260504004050 13 180 1.6 8.0 0.00 0.00 0.00 66 1020.6
20260504003051 13 184 4.8 8.0 0.00 0.00 0.00 66 1020.6
20260504002049 13 193 6.4 9.7 0.00 0.00 0.00 65 1020.7
20260504001050 13 203 6.4 9.7 0.00 0.00 0.00 65 1020.7
20260504000052 13 194 4.8 6.4 0.00 0.00 0.00 66 1020.7
20260503235050 13 186 3.2 8.0 0.00 0.00 0.00 65 1020.9
20260503234050 13 218 3.2 8.0 0.00 0.00 0.00 66 1021.0
20260503233049 13 201 3.2 8.0 0.00 0.00 0.00 65 1021.0
20260503232050 13 205 4.8 9.7 0.00 0.00 0.00 66 1021.1
20260503231049 13 186 6.4 9.7 0.00 0.00 0.00 66 1021.0
20260503230052 13 197 4.8 9.7 0.00 0.00 0.00 67 1021.2
20260503225050 13 220 4.8 8.0 0.00 0.00 0.00 67 1021.3
20260503224052 13 203 4.8 11.3 0.00 0.00 0.00 69 1021.3
20260503223055 13 185 6.4 9.7 0.00 0.00 0.00 70 1021.4
20260503221050 13 182 4.8 6.4 0.00 0.00 0.00 76 1021.4
20260503220047 13 188 4.8 6.4 0.00 0.00 0.00 78 1021.4
20260503215047 13 188 3.2 6.4 0.00 0.00 0.00 76 1021.4
20260503214049 14 181 3.2 8.0 0.00 0.00 0.00 78 1021.3
20260503213047 14 186 4.8 6.4 0.00 0.00 0.00 79 1021.4
20260503211045 14 191 3.2 6.4 0.00 0.00 0.00 78 1021.4
20260503210043 14 201 4.8 6.4 0.00 0.00 0.00 78 1021.4
20260503205042 14 187 4.8 8.0 0.00 0.00 0.00 78 1021.4
20260503204040 14 219 4.8 8.0 0.00 0.00 0.00 79 1021.4
20260503203041 14 195 4.8 8.0 0.00 0.00 0.00 78 1021.4
20260503202044 14 209 4.8 9.7 0.00 0.00 0.00 79 1021.3
20260503201040 15 193 4.8 9.7 0.00 0.00 0.00 79 1021.4
20260503195041 15 196 6.4 9.7 0.00 0.00 0.00 79 1021.2
20260503194036 15 185 4.8 8.0 0.00 0.00 0.00 79 1021.3
20260503193035 15 182 4.8 8.0 0.00 0.00 0.00 80 1021.3
20260503192037 15 186 6.4 8.0 0.00 0.00 0.00 79 1021.2
20260503190041 16 215 4.8 8.0 0.00 0.00 0.00 78 1021.2
20260503184035 16 167 3.2 8.0 0.00 0.00 0.00 77 1020.8
20260503183034 17 186 0.0 3.2 0.00 0.00 0.00 75 1020.7
20260503182031 17 327 0.0 0.0 0.00 0.00 0.00 75 1020.7
20260503181031 17 327 0.0 0.0 0.00 0.00 0.00 75 1020.7
20260503180033 17 327 1.6 3.2 0.00 0.00 0.00 74 1020.5
20260503175043 17 327 0.0 3.2 0.00 0.00 0.00 74 1020.4
20260503174035 17 327 3.2 6.4 0.00 0.00 0.00 73 1020.4
20260503173038 17 333 4.8 8.0 0.00 0.00 0.00 73 1020.5
20260503172034 17 323 4.8 8.0 0.00 0.00 0.00 72 1020.5
20260503171031 18 315 4.8 11.3 0.00 0.00 0.00 72 1020.3
20260503131033 18 311 16.1 25.7 0.00 0.00 0.00 69 1021.4
20260503081023 18 299 11.3 20.9 0.00 0.00 0.00 60 1022.4
20260503072030 17 308 9.7 19.3 0.00 0.00 0.00 60 1022.4
20260503071026 17 296 9.7 17.7 0.00 0.00 0.00 59 1022.3
20260503055026 15 240 6.4 11.3 0.00 0.00 0.00 64 1022.2
20260503054031 15 240 4.8 9.7 0.00 0.00 0.00 66 1022.2
20260503053028 14 206 4.8 11.3 0.00 0.00 0.00 68 1022.1
20260503052028 14 217 6.4 9.7 0.00 0.00 0.00 69 1022.0